222  
ASUS43 KDTX 152310  
RWRMI  
MICHIGAN HOURLY REGIONAL WEATHER ROUNDUP  
NATIONAL WEATHER SERVICE DETROIT/PONTIAC MI  
700 PM EDT SUN JUL 15 2018  
 
NOTE: "FAIR" INDICATES FEW OR NO CLOUDS BELOW 12,000 FEET WITH NO  
SIGNIFICANT WEATHER AND/OR TO VISIBILITY
.  
 
MIZ047>049-052>055-059>063-066>070-074>076-081>083-160000-  
SOUTHEAST LOWER MICHIGAN  
 
CITY SKY/WX TMP DP RH WIND PRES REMARKS
 
ADRIAN FAIR 90 66 45 SW6 29.94F HX 92  
ALMA FAIR 87 71 59 CALM 29.94S HX 92  
ANN ARBOR FAIR 91 69 48 S3 29.93F HX 96  
BAD AXE FAIR 83 69 62 SE5 29.96S  
CARO FAIR 85 70 60 E6 29.94S  
DETROIT CITY FAIR 84 73 69 SE3 29.93F HX 90  
DETROIT PTSUNNY 90 70 51 S10 29.93F HX 95  
FLINT FAIR 89 67 47 NW6 29.93F HX 92  
GROSSE ILE FAIR 84 73 69 S6 29.93S HX 90  
HILLSDALE FAIR 84 68 58 S5 29.96S  
HOWELL FAIR 88 67 50 CALM 29.95S HX 91  
 
CITY SKY/WX TMP DP RH WIND PRES REMARKS
 
JACKSON PTSUNNY 87 69 54 CALM 29.95S HX 91  
LAMBERTVILLE FAIR 88 68 51 SE3 29.93S HX 91  
LANSING LGT RAIN 82 72 71 S9 29.94S  
LAPEER FAIR 90 63 41 NW9 29.95S HX 91  
MASON FAIR 87 68 52 CALM 29.94S HX 91  
MONROE FAIR 87 70 57 S12 29.92S HX 92  
MT. CLEMENS MOSUNNY 87 72 61 SE6 29.92F HX 93  
PONTIAC FAIR 90 68 48 VRB7 29.93F HX 94  
PORT HOPE N/A 75 72 90 E7 29.95F  
PORT HURON FAIR 86 68 54 SW3 29.93S  
TRI CITIES FAIR 88 70 55 W6 29.93F HX 93  
MIDLAND FAIR 87 69 54 S5 29.92S HX 92  
TROY FAIR 88 67 50 SE7 29.95S HX 91  
SAGINAW HB FAIR 88 64 45 CALM 29.93S  

 
MIZ043>046-050>051-056>058-064>065-071>073-077>080-160000-  
SOUTHWEST LOWER MICHIGAN  
 
CITY SKY/WX TMP DP RH WIND PRES REMARKS
 
BATTLE CREEK FAIR 91 68 46 W5 29.94F HX 95  
BENTON HARBOR FAIR 85 70 60 NW3 29.94F  
BIG RAPIDS FAIR 87 68 53 W5 29.94S HX 90  
COLDWATER FAIR 87 61 41 W7 29.95R  
FREMONT FAIR 87 68 52 SW6 29.93F HX 90  
HOLLAND FAIR 86 68 54 W6 29.94F  
GRAND RAPIDS PTSUNNY 81 74 79 NE8 29.94F  
IONIA HVY RAIN 75 70 84 W9G26 29.96R  
KALAMAZOO FAIR 89 68 49 W5 29.93F HX 93  
LUDINGTON FAIR 82 69 65 W3 29.93F  
MARSHALL FAIR 89 65 44 S5 29.93F HX 91  
MOUNT PLEASANT FAIR 87 70 58 NE3 29.93S HX 91  
MUSKEGON FAIR 86 69 56 CALM 29.93F HX 90  
SOUTH HAVEN FAIR 85 68 57 CALM 29.94F  

 
MIZ016>042-160000-  
NORTHERN LOWER MICHIGAN  
 
CITY SKY/WX TMP DP RH WIND PRES REMARKS
 
ALPENA FAIR 84 64 50 SE10 29.93F  
BEAVER ISLAND FAIR 78 69 72 SW6 29.93F  
BELLAIRE FAIR 82 67 59 CALM 29.93F  
CADILLAC FAIR 85 67 54 W7 29.96S  
CHARLEVOIX FAIR 78 69 72 NW3 29.96F  
FRANKFORT FAIR 79 71 74 SW5 29.93F  
GAYLORD FAIR 84 64 50 W7 29.96F  
GRAYLING FAIR 86 66 51 NW6 29.93F  
HARBOR SPRINGS FAIR 75 70 84 CALM 29.94S  
HOUGHTON LAKE FAIR 86 65 49 W3 29.95F  
MANISTEE FAIR 83 70 64 NW6 29.93F  
OSCODA FAIR 80 56 43 SE9 29.94F  
PELLSTON FAIR 85 61 44 W5 29.94F  
ROGERS CITY FAIR 84 63 47 SE8 29.93S  
TRAVERSE CITY PTSUNNY 81 71 71 N6 29.91F  

 
MIZ007>008-015-160000-  
EASTERN UPPER MICHIGAN  
 
CITY SKY/WX TMP DP RH WIND PRES REMARKS
 
KINROSS FAIR 84 66 54 SW7 29.92F  
MACKINAC ISLAN FAIR 78 62 56 SW5 29.93F  
NEWBERRY FAIR 80 67 65 S7 29.91F  
S. S. MARIE FAIR 87 63 44 SW9 29.90F  
MUNISING N/A 84 66 54 S8 29.87F  

 
MIZ004>006-011>014-085-160000-  
CENTRAL UPPER MICHIGAN  
 
CITY SKY/WX TMP DP RH WIND PRES REMARKS
 
MANISTIQUE PTSUNNY 67 66 94 S6 29.92F FOG  
ESCANABA FAIR 79 70 74 S7 29.90F  
MENOMINEE FAIR 81 72 74 S9 29.91F  
SAWYER-GWINN MOSUNNY 86 57 37 W12 29.91F  

 
MIZ001>003-009>011-084-160000-  
WESTERN UPPER MICHIGAN  
 
CITY SKY/WX TMP DP RH WIND PRES REMARKS
 
IRON MOUNTAIN FAIR 88 64 44 SW8 29.90F  
HOUGHTON PTSUNNY 80 65 59 W10 29.88F  
COPPER HARBOR N/A 85 63 47 W3 29.85F  
IRONWOOD FAIR 79 69 71 NW5 29.92F  

 
 
ABBREVIATIONS USED IN REMARKS  
TC - TEMPERATURE IN CELSIUS  
WCI - WIND CHILL INDEX  
HX - HEAT INDEX  
VSB - VISIBILITY  
 
 
 
CLICK HERE TO GO TO PREVIOUS BULLETINS.

The Nexlab MI Page Main Text Page